Regional Weather Roundup
Issued by NWS

Home | Current Version | Previous Version | Text Only | Print | Product List | Glossary On
Versions: 1 2 3 4 5 6 7 8 9 10 11 12 13 14 15 16 17 18 19 20 21 22 23 24 25 26 27 28 29 30 31 32 33 34 35 36 37 38 39 40 41 42 43 44 45 46 47 48 49 50
000
ASUS43 KFSD 261510
RWRSD

WEATHER ROUNDUP FOR SOUTH DAKOTA
NATIONAL WEATHER SERVICE SIOUX FALLS SD
1000 AM CDT TUE SEP 26 2017

NOTE: "FAIR" INDICATES FEW OR NO CLOUDS BELOW 12,000 FEET WITH NO
SIGNIFICANT WEATHER AND/OR OBSTRUCTIONS TO VISIBILITY.


SDZ001>005-009-010-012>017-261600-
NORTHWEST AND NORTH CENTRAL SOUTH DAKOTA

CITY           SKY/WX    TMP DP  RH WIND       PRES   REMARKS
BUFFALO          N/A     46  44  93 NW5       30.05R
FAITH            N/A     50  46  86 SW5       30.11R
MOBRIDGE       CLOUDY    51  45  79 NE5       30.10S
$$

SDZ012>016-024>037-041>051-057-063-072>074-261600-
SOUTHWEST AND SOUTH CENTRAL SOUTH DAKOTA

CITY           SKY/WX    TMP DP  RH WIND       PRES   REMARKS
RAPID CTY ARPT SUNNY     52  45  76 NW5       30.13R
PIERRE         SUNNY     48  46  93 CALM      30.12S
CUSTER         SUNNY     45  38  76 VRB3      30.16R
ELLSWORTH AFB  SUNNY     50  45  82 CALM      30.12R
PHILIP         SUNNY     54  46  74 SW9       30.13R
PINE RIDGE     SUNNY     51  46  83 SW8       30.15R
SPEARFISH      FAIR      46  41  81 N6        30.13R
WINNER         FAIR      51  47  86 CALM      30.16R
$$

SDZ004>011-016>023-039-040-261600-
NORTHEAST SOUTH DAKOTA

CITY           SKY/WX    TMP DP  RH WIND       PRES   REMARKS
ABERDEEN       PTSUNNY   50  48  93 NW9       30.12S
WATERTOWN      CLOUDY    49  49 100 W14       30.08R
BROOKINGS      CLOUDY    50  48  93 NW12      30.10R
SISSETON         N/A     51  50  96 NW13      30.06R
$$

SDZ017-020-022-023-036>040-048>070-261600-
SOUTHEAST SOUTH DAKOTA

CITY           SKY/WX    TMP DP  RH WIND       PRES   REMARKS
SIOUX FALLS    CLOUDY    52  50  93 NW14      30.10R
HURON          CLOUDY    51  48  89 NW10      30.13R
CHAMBERLAIN    SUNNY     52  50  90 NW3       30.15R
MITCHELL       PTSUNNY   52  46  80 NW13      30.14R
YANKTON        CLOUDY    51  46  83 NW10      30.15R
$$

ABBREVIATIONS USED IN REMARKS
   TC - TEMPERATURE IN CELSIUS
  WCI - WIND CHILL INDEX
   HX - HEAT INDEX
  VSB - VISIBILITY





USA.gov is the U.S. government's official web portal to all federal, state and local government web resources and services.